Year,Month,Day,Hour,Minute,Value (Times are PST for windspeed in km/hr)
2022,05,19,00,00,15.70
2022,05,19,00,01,16.60
2022,05,19,00,02,16.60
2022,05,19,00,03,14.10
2022,05,19,00,04,15.60
2022,05,19,00,05,15.00
2022,05,19,00,06,19.20
2022,05,19,00,07,14.20
2022,05,19,00,08,11.60
2022,05,19,00,09,11.90
2022,05,19,00,10,11.50
2022,05,19,00,11,8.90
2022,05,19,00,12,11.90
2022,05,19,00,13,9.90
2022,05,19,00,14,14.10
2022,05,19,00,15,9.90
2022,05,19,00,16,10.10
2022,05,19,00,17,6.10
2022,05,19,00,18,11.10
2022,05,19,00,19,10.20
2022,05,19,00,20,12.10
2022,05,19,00,21,13.50
2022,05,19,00,22,14.60
2022,05,19,00,23,13.90
2022,05,19,00,24,9.40
2022,05,19,00,25,10.10
2022,05,19,00,26,16.00
2022,05,19,00,27,18.70
2022,05,19,00,28,11.20
2022,05,19,00,29,9.20
2022,05,19,00,30,16.20
2022,05,19,00,31,17.10
2022,05,19,00,32,11.10
2022,05,19,00,33,14.60
2022,05,19,00,34,13.10
2022,05,19,00,35,13.20
2022,05,19,00,36,12.60
2022,05,19,00,37,14.60
2022,05,19,00,38,11.70
2022,05,19,00,39,17.60
2022,05,19,00,40,15.90
2022,05,19,00,41,19.00
2022,05,19,00,42,18.50
2022,05,19,00,43,15.30
2022,05,19,00,44,12.30
2022,05,19,00,45,9.70
2022,05,19,00,46,11.80
2022,05,19,00,47,13.60
2022,05,19,00,48,10.80
2022,05,19,00,49,13.50
2022,05,19,00,50,9.90
2022,05,19,00,51,13.20
2022,05,19,00,52,10.10
2022,05,19,00,53,13.50
2022,05,19,00,54,12.50
2022,05,19,00,55,9.00
2022,05,19,00,56,9.40
2022,05,19,00,57,9.20
2022,05,19,00,58,12.90
2022,05,19,00,59,16.30
2022,05,19,01,00,11.30
2022,05,19,01,01,9.90
2022,05,19,01,02,7.30
2022,05,19,01,03,8.90
2022,05,19,01,04,13.00
2022,05,19,01,05,12.00
2022,05,19,01,06,15.30
2022,05,19,01,07,8.20
2022,05,19,01,08,9.50
2022,05,19,01,09,8.30
2022,05,19,01,10,12.10
2022,05,19,01,11,8.90
2022,05,19,01,12,6.00
2022,05,19,01,13,5.00
2022,05,19,01,14,6.70
2022,05,19,01,15,8.60
2022,05,19,01,16,10.70
2022,05,19,01,17,9.20
2022,05,19,01,18,11.30
2022,05,19,01,19,7.90
2022,05,19,01,20,11.80
2022,05,19,01,21,8.50
2022,05,19,01,22,11.10
2022,05,19,01,23,8.10
2022,05,19,01,24,10.60
2022,05,19,01,25,19.20
2022,05,19,01,26,9.50
2022,05,19,01,27,7.00
2022,05,19,01,28,10.50
2022,05,19,01,29,11.70
2022,05,19,01,30,13.00
2022,05,19,01,31,15.00
2022,05,19,01,32,17.20
2022,05,19,01,33,15.10
2022,05,19,01,34,11.60
2022,05,19,01,35,10.70
2022,05,19,01,36,5.20
2022,05,19,01,37,13.70
2022,05,19,01,38,11.00
2022,05,19,01,39,12.60
2022,05,19,01,40,15.30
2022,05,19,01,41,11.30
2022,05,19,01,42,16.20
2022,05,19,01,43,9.40
2022,05,19,01,44,10.50
2022,05,19,01,45,5.20
2022,05,19,01,46,11.40
2022,05,19,01,47,15.00
2022,05,19,01,48,10.70
2022,05,19,01,49,7.60
2022,05,19,01,50,10.60
2022,05,19,01,51,12.40
2022,05,19,01,52,15.00
2022,05,19,01,53,13.80
2022,05,19,01,54,10.30
2022,05,19,01,55,11.00
2022,05,19,01,56,14.80
2022,05,19,01,57,14.50
2022,05,19,01,58,9.90
2022,05,19,01,59,8.30
2022,05,19,02,00,9.10
2022,05,19,02,01,5.70
2022,05,19,02,02,10.20
2022,05,19,02,03,9.70
2022,05,19,02,04,10.50
2022,05,19,02,05,7.20
2022,05,19,02,06,9.90
2022,05,19,02,07,10.50
2022,05,19,02,08,10.90
2022,05,19,02,09,13.00
2022,05,19,02,10,14.70
2022,05,19,02,11,14.10
2022,05,19,02,12,10.90
2022,05,19,02,13,12.80
2022,05,19,02,14,13.70
2022,05,19,02,15,16.70
2022,05,19,02,16,11.10
2022,05,19,02,17,10.60
2022,05,19,02,18,11.20
2022,05,19,02,19,13.00
2022,05,19,02,20,15.30
2022,05,19,02,21,15.40
2022,05,19,02,22,12.90
2022,05,19,02,23,18.10
2022,05,19,02,24,10.20
2022,05,19,02,25,15.00
2022,05,19,02,26,20.00
2022,05,19,02,27,14.30
2022,05,19,02,28,15.00
2022,05,19,02,29,12.10
2022,05,19,02,30,11.50
2022,05,19,02,31,16.90
2022,05,19,02,32,14.10
2022,05,19,02,33,14.60
2022,05,19,02,34,14.10
2022,05,19,02,35,12.90
2022,05,19,02,36,15.40
2022,05,19,02,37,11.60
2022,05,19,02,38,10.70
2022,05,19,02,39,10.10
2022,05,19,02,40,15.10
2022,05,19,02,41,15.90
2022,05,19,02,42,10.20
2022,05,19,02,43,14.40
2022,05,19,02,44,13.20
2022,05,19,02,45,10.60
2022,05,19,02,46,12.10
2022,05,19,02,47,12.80
2022,05,19,02,48,11.60
2022,05,19,02,49,11.50
2022,05,19,02,50,13.20
2022,05,19,02,51,12.70
2022,05,19,02,52,11.10
2022,05,19,02,53,5.40
2022,05,19,02,54,6.80
2022,05,19,02,55,11.70
2022,05,19,02,56,11.40
2022,05,19,02,57,8.80
2022,05,19,02,58,15.60
2022,05,19,02,59,10.10
2022,05,19,03,00,11.70
2022,05,19,03,01,11.80
2022,05,19,03,02,12.80
2022,05,19,03,03,14.70
2022,05,19,03,04,9.40
2022,05,19,03,05,6.40
2022,05,19,03,06,9.00
2022,05,19,03,07,12.20
2022,05,19,03,08,5.70
2022,05,19,03,09,8.50
2022,05,19,03,10,10.10
2022,05,19,03,11,13.30
2022,05,19,03,12,6.20
2022,05,19,03,13,8.20
2022,05,19,03,14,9.70
2022,05,19,03,15,11.70
2022,05,19,03,16,7.40
2022,05,19,03,17,5.40
2022,05,19,03,18,3.90
2022,05,19,03,19,5.70
2022,05,19,03,20,10.70
2022,05,19,03,21,9.90
2022,05,19,03,22,11.00
2022,05,19,03,23,8.90
2022,05,19,03,24,5.10
2022,05,19,03,25,3.40
2022,05,19,03,26,4.40
2022,05,19,03,27,7.80
2022,05,19,03,28,8.50
2022,05,19,03,29,4.60
2022,05,19,03,30,5.80
2022,05,19,03,31,5.40
2022,05,19,03,32,5.10
2022,05,19,03,33,1.80
2022,05,19,03,34,5.80
2022,05,19,03,35,14.00
2022,05,19,03,36,8.70
2022,05,19,03,37,8.80
2022,05,19,03,38,12.10
2022,05,19,03,39,6.90
2022,05,19,03,40,4.60
2022,05,19,03,41,11.20
2022,05,19,03,42,6.60
2022,05,19,03,43,7.20
2022,05,19,03,44,8.60
2022,05,19,03,45,8.20
2022,05,19,03,46,7.90
2022,05,19,03,47,8.00
2022,05,19,03,48,6.50
2022,05,19,03,49,9.20
2022,05,19,03,50,5.20
2022,05,19,03,51,8.60
2022,05,19,03,52,4.50
2022,05,19,03,53,3.40
2022,05,19,03,54,5.90
2022,05,19,03,55,5.30
2022,05,19,03,56,7.40
2022,05,19,03,57,8.30
2022,05,19,03,58,7.60
2022,05,19,03,59,7.00
2022,05,19,04,00,7.00
2022,05,19,04,01,8.40
2022,05,19,04,02,6.40
2022,05,19,04,03,8.50
2022,05,19,04,04,6.10
2022,05,19,04,05,5.50
2022,05,19,04,06,9.80
2022,05,19,04,07,5.50
2022,05,19,04,08,8.70
2022,05,19,04,09,6.00
2022,05,19,04,10,9.40
2022,05,19,04,11,8.30
2022,05,19,04,12,8.70
2022,05,19,04,13,8.00
2022,05,19,04,14,10.10
2022,05,19,04,15,12.50
2022,05,19,04,16,14.60
2022,05,19,04,17,9.70
2022,05,19,04,18,10.20
2022,05,19,04,19,8.80
2022,05,19,04,20,7.10
2022,05,19,04,21,9.60
2022,05,19,04,22,6.60
2022,05,19,04,23,9.40
2022,05,19,04,24,7.80
2022,05,19,04,25,8.30
2022,05,19,04,26,8.10
2022,05,19,04,27,7.80
2022,05,19,04,28,9.70
2022,05,19,04,29,8.10
2022,05,19,04,30,8.50
2022,05,19,04,31,8.40
2022,05,19,04,32,8.90
2022,05,19,04,33,8.80
2022,05,19,04,34,8.90
2022,05,19,04,35,8.50
2022,05,19,04,36,10.00
2022,05,19,04,37,11.80
2022,05,19,04,38,11.00
2022,05,19,04,39,11.90
2022,05,19,04,40,9.80
2022,05,19,04,41,13.30
2022,05,19,04,42,11.60
2022,05,19,04,43,15.60
2022,05,19,04,44,15.60
2022,05,19,04,45,8.30
2022,05,19,04,46,10.00
2022,05,19,04,47,7.00
2022,05,19,04,48,11.20
2022,05,19,04,49,11.50
2022,05,19,04,50,8.00
2022,05,19,04,51,14.10
2022,05,19,04,52,12.20
2022,05,19,04,53,10.60
2022,05,19,04,54,10.80
2022,05,19,04,55,12.70
2022,05,19,04,56,11.90
2022,05,19,04,57,15.10
2022,05,19,04,58,15.40
2022,05,19,04,59,14.50
2022,05,19,05,00,12.00
2022,05,19,05,01,6.70
2022,05,19,05,02,9.60
2022,05,19,05,03,8.80
2022,05,19,05,04,9.70
2022,05,19,05,05,6.70
2022,05,19,05,06,11.20
2022,05,19,05,07,7.50
2022,05,19,05,08,4.50
2022,05,19,05,09,6.40
2022,05,19,05,10,6.40
2022,05,19,05,11,6.60
2022,05,19,05,12,6.90
2022,05,19,05,13,9.30
2022,05,19,05,14,5.20
2022,05,19,05,15,4.50
2022,05,19,05,16,5.60
2022,05,19,05,17,4.00
2022,05,19,05,18,6.10
2022,05,19,05,19,7.10
2022,05,19,05,20,2.00
2022,05,19,05,21,8.00
2022,05,19,05,22,5.40
2022,05,19,05,23,6.40
2022,05,19,05,24,5.20
2022,05,19,05,25,5.20
2022,05,19,05,26,3.60
2022,05,19,05,27,4.00
2022,05,19,05,28,4.80
2022,05,19,05,29,6.00
2022,05,19,05,30,6.70
2022,05,19,05,31,5.50
2022,05,19,05,32,3.10
2022,05,19,05,33,7.60
2022,05,19,05,34,6.30
2022,05,19,05,35,6.60
2022,05,19,05,36,7.70
2022,05,19,05,37,9.70
2022,05,19,05,38,7.10
2022,05,19,05,39,6.70
2022,05,19,05,40,4.80
2022,05,19,05,41,4.80
2022,05,19,05,42,4.80
2022,05,19,05,43,4.90
2022,05,19,05,44,4.90
2022,05,19,05,45,4.70
2022,05,19,05,46,3.60
2022,05,19,05,47,5.50
2022,05,19,05,48,6.90
2022,05,19,05,49,5.70
2022,05,19,05,50,8.30
2022,05,19,05,51,6.00
2022,05,19,05,52,7.40
2022,05,19,05,53,5.90
2022,05,19,05,54,6.20
2022,05,19,05,55,8.80
2022,05,19,05,56,8.90
2022,05,19,05,57,10.60
2022,05,19,05,58,8.80
2022,05,19,05,59,7.80
2022,05,19,06,00,6.20
2022,05,19,06,01,4.80
2022,05,19,06,02,6.10
2022,05,19,06,03,7.20
2022,05,19,06,04,7.80
2022,05,19,06,05,8.60
2022,05,19,06,06,7.60
2022,05,19,06,07,7.30
2022,05,19,06,08,6.10
2022,05,19,06,09,1.90
2022,05,19,06,10,1.60
2022,05,19,06,11,3.90
2022,05,19,06,12,3.70
2022,05,19,06,13,2.90
2022,05,19,06,14,1.70
2022,05,19,06,15,2.80
2022,05,19,06,16,2.20
2022,05,19,06,17,3.60
2022,05,19,06,18,4.50
2022,05,19,06,19,0.80
2022,05,19,06,20,2.30
2022,05,19,06,21,3.60
2022,05,19,06,22,2.60
2022,05,19,06,23,3.60
2022,05,19,06,24,5.00
2022,05,19,06,25,6.30
2022,05,19,06,26,5.40
2022,05,19,06,27,5.00
2022,05,19,06,28,3.70
2022,05,19,06,29,2.10
2022,05,19,06,30,4.80
2022,05,19,06,31,5.50
2022,05,19,06,32,7.20
2022,05,19,06,33,5.50
2022,05,19,06,34,2.70
2022,05,19,06,35,2.50
2022,05,19,06,36,1.60
2022,05,19,06,37,2.20
2022,05,19,06,38,2.10
2022,05,19,06,39,3.50
2022,05,19,06,40,2.60
2022,05,19,06,41,3.10
2022,05,19,06,42,5.20
2022,05,19,06,43,4.90
2022,05,19,06,44,4.30
2022,05,19,06,45,4.80
2022,05,19,06,46,6.20
2022,05,19,06,47,7.30
2022,05,19,06,48,5.30
2022,05,19,06,49,7.40
2022,05,19,06,50,4.30
2022,05,19,06,51,8.10
2022,05,19,06,52,8.50
2022,05,19,06,53,7.30
2022,05,19,06,54,7.00
2022,05,19,06,55,9.60
2022,05,19,06,56,6.50
2022,05,19,06,57,8.00
2022,05,19,06,58,6.70
2022,05,19,06,59,5.30
2022,05,19,07,00,8.00
2022,05,19,07,01,7.40
2022,05,19,07,02,7.00
2022,05,19,07,03,11.00
2022,05,19,07,04,7.20
2022,05,19,07,05,7.10
2022,05,19,07,06,10.70
2022,05,19,07,07,8.40
2022,05,19,07,08,9.00
2022,05,19,07,09,7.60
2022,05,19,07,10,9.50
2022,05,19,07,11,9.10
2022,05,19,07,12,11.30
2022,05,19,07,13,7.40
2022,05,19,07,14,9.90
2022,05,19,07,15,8.30
2022,05,19,07,16,4.50
2022,05,19,07,17,7.80
2022,05,19,07,18,6.60
2022,05,19,07,19,4.60
2022,05,19,07,20,5.60
2022,05,19,07,21,8.80
2022,05,19,07,22,5.60
2022,05,19,07,23,8.90
2022,05,19,07,24,10.40
2022,05,19,07,25,4.80
2022,05,19,07,26,4.70
2022,05,19,07,27,7.10
2022,05,19,07,28,8.50
2022,05,19,07,29,6.90
2022,05,19,07,30,7.70
2022,05,19,07,31,6.90
2022,05,19,07,32,6.90
2022,05,19,07,33,8.50
2022,05,19,07,34,6.70
2022,05,19,07,35,4.60
2022,05,19,07,36,2.50
2022,05,19,07,37,6.20
2022,05,19,07,38,5.90
2022,05,19,07,39,9.40
2022,05,19,07,40,8.70
2022,05,19,07,41,6.50
2022,05,19,07,42,9.40
2022,05,19,07,43,9.00
2022,05,19,07,44,9.40
2022,05,19,07,45,7.80
2022,05,19,07,46,4.50
2022,05,19,07,47,7.60
2022,05,19,07,48,8.70
2022,05,19,07,49,9.60
2022,05,19,07,50,7.20
2022,05,19,07,51,8.10
2022,05,19,07,52,5.40
2022,05,19,07,53,5.00
2022,05,19,07,54,8.40
2022,05,19,07,55,9.00
2022,05,19,07,56,8.90
2022,05,19,07,57,9.70
2022,05,19,07,58,7.40
2022,05,19,07,59,10.20
2022,05,19,08,00,6.80
2022,05,19,08,01,8.50
2022,05,19,08,02,9.40
2022,05,19,08,03,12.50
2022,05,19,08,04,12.40
2022,05,19,08,05,11.10
2022,05,19,08,06,12.90
2022,05,19,08,07,10.90
2022,05,19,08,08,9.90
2022,05,19,08,09,12.40
2022,05,19,08,10,9.10
2022,05,19,08,11,8.80
2022,05,19,08,12,8.00
2022,05,19,08,13,6.60
2022,05,19,08,14,7.40
2022,05,19,08,15,12.00
2022,05,19,08,16,10.70
2022,05,19,08,17,9.60
2022,05,19,08,18,10.60
2022,05,19,08,19,12.50
2022,05,19,08,20,4.90
2022,05,19,08,21,6.80
2022,05,19,08,22,11.90
2022,05,19,08,23,16.90
2022,05,19,08,24,10.60
2022,05,19,08,25,12.50
2022,05,19,08,26,8.60
2022,05,19,08,27,5.30
2022,05,19,08,28,7.50
2022,05,19,08,29,10.50
2022,05,19,08,30,10.10
2022,05,19,08,31,8.20
2022,05,19,08,32,7.50
2022,05,19,08,33,11.90
2022,05,19,08,34,10.70
2022,05,19,08,35,14.10
2022,05,19,08,36,10.20
2022,05,19,08,37,8.60
2022,05,19,08,38,10.50
2022,05,19,08,39,9.20
2022,05,19,08,40,6.90
2022,05,19,08,41,5.50
2022,05,19,08,42,14.90
2022,05,19,08,43,7.60
2022,05,19,08,44,8.50
2022,05,19,08,45,10.40
2022,05,19,08,46,7.80
2022,05,19,08,47,10.80
2022,05,19,08,48,11.90
2022,05,19,08,49,12.10
2022,05,19,08,50,5.30
2022,05,19,08,51,8.20
2022,05,19,08,52,8.50
2022,05,19,08,53,9.20
2022,05,19,08,54,8.40
2022,05,19,08,55,7.80
2022,05,19,08,56,14.50
2022,05,19,08,57,15.00
2022,05,19,08,58,10.20
2022,05,19,08,59,14.30
2022,05,19,09,00,8.10
2022,05,19,09,01,11.50
2022,05,19,09,02,10.90
2022,05,19,09,03,10.00
2022,05,19,09,04,6.70
2022,05,19,09,05,10.10
2022,05,19,09,06,7.30
2022,05,19,09,07,9.30
2022,05,19,09,08,10.00
2022,05,19,09,09,9.00
2022,05,19,09,10,5.40
2022,05,19,09,11,7.70
2022,05,19,09,12,9.20
2022,05,19,09,13,9.20
2022,05,19,09,14,5.90
2022,05,19,09,15,5.70
2022,05,19,09,16,9.70
2022,05,19,09,17,9.90
2022,05,19,09,18,14.40
2022,05,19,09,19,7.80
2022,05,19,09,20,11.30
2022,05,19,09,21,9.80
2022,05,19,09,22,6.60
2022,05,19,09,23,9.50
2022,05,19,09,24,5.80
2022,05,19,09,25,5.20
2022,05,19,09,26,5.20
2022,05,19,09,27,11.60
2022,05,19,09,28,10.50
2022,05,19,09,29,7.80
2022,05,19,09,30,12.70
2022,05,19,09,31,11.10
2022,05,19,09,32,7.80
2022,05,19,09,33,9.10
2022,05,19,09,34,11.20
2022,05,19,09,35,13.40
2022,05,19,09,36,16.20
2022,05,19,09,37,11.40
2022,05,19,09,38,13.50
2022,05,19,09,39,15.70
2022,05,19,09,40,11.50
2022,05,19,09,41,9.00
2022,05,19,09,42,10.60
2022,05,19,09,43,9.70
2022,05,19,09,44,8.50
2022,05,19,09,45,7.60
2022,05,19,09,46,12.70
2022,05,19,09,47,13.40
2022,05,19,09,48,9.30
2022,05,19,09,49,12.30
2022,05,19,09,50,7.90
2022,05,19,09,51,4.90
2022,05,19,09,52,2.60
2022,05,19,09,53,8.80
2022,05,19,09,54,6.10
2022,05,19,09,55,6.40
2022,05,19,09,56,5.50
2022,05,19,09,57,12.70
2022,05,19,09,58,11.50
2022,05,19,09,59,7.50
2022,05,19,10,00,8.80
2022,05,19,10,01,7.30
2022,05,19,10,02,5.80
2022,05,19,10,03,5.00
2022,05,19,10,04,6.20
2022,05,19,10,05,8.10
2022,05,19,10,06,2.90
2022,05,19,10,07,6.90
2022,05,19,10,08,4.60
2022,05,19,10,09,1.40
2022,05,19,10,10,3.90
2022,05,19,10,11,7.70
2022,05,19,10,12,9.70
2022,05,19,10,13,9.00
2022,05,19,10,14,6.80
2022,05,19,10,15,8.80
2022,05,19,10,16,8.60
2022,05,19,10,17,7.00
2022,05,19,10,18,3.60
2022,05,19,10,19,6.60
2022,05,19,10,20,5.70
2022,05,19,10,21,7.60
2022,05,19,10,22,7.10
2022,05,19,10,23,8.30
2022,05,19,10,24,4.40
2022,05,19,10,25,5.40
2022,05,19,10,26,2.70
2022,05,19,10,27,1.30
2022,05,19,10,28,4.50
2022,05,19,10,29,4.40
2022,05,19,10,30,6.10
2022,05,19,10,31,5.30
2022,05,19,10,32,7.00
2022,05,19,10,33,9.10
2022,05,19,10,34,7.60
2022,05,19,10,35,5.90
2022,05,19,10,36,1.70
2022,05,19,10,37,1.30
2022,05,19,10,38,2.20
2022,05,19,10,39,2.70
2022,05,19,10,40,0.10
2022,05,19,10,41,0.40
2022,05,19,10,42,0.90
2022,05,19,10,43,2.40
2022,05,19,10,44,3.80
2022,05,19,10,45,4.40
2022,05,19,10,46,5.60
2022,05,19,10,47,1.50
2022,05,19,10,48,1.80
2022,05,19,10,49,2.70
2022,05,19,10,50,4.50
2022,05,19,10,51,5.90
2022,05,19,10,52,3.10
2022,05,19,10,53,1.40
2022,05,19,10,54,12.60
2022,05,19,10,55,12.00
2022,05,19,10,56,13.30
2022,05,19,10,57,11.70
2022,05,19,10,58,11.20
2022,05,19,10,59,11.50
2022,05,19,11,00,8.50
2022,05,19,11,01,7.40
2022,05,19,11,02,10.40
2022,05,19,11,03,10.30
2022,05,19,11,04,7.80
2022,05,19,11,05,7.40
2022,05,19,11,06,9.40
2022,05,19,11,07,6.90
2022,05,19,11,08,7.40
2022,05,19,11,09,3.60
2022,05,19,11,10,3.80
2022,05,19,11,11,4.60
2022,05,19,11,12,12.90
2022,05,19,11,13,10.50
2022,05,19,11,14,4.60
2022,05,19,11,15,3.60
2022,05,19,11,16,7.90
2022,05,19,11,17,6.10
2022,05,19,11,18,8.80
2022,05,19,11,19,7.90
2022,05,19,11,20,7.80
2022,05,19,11,21,9.10
2022,05,19,11,22,6.50
2022,05,19,11,23,5.40
2022,05,19,11,24,5.00
2022,05,19,11,25,4.80
2022,05,19,11,26,3.90
2022,05,19,11,27,4.30
2022,05,19,11,28,2.70
2022,05,19,11,29,3.70
2022,05,19,11,30,8.20
2022,05,19,11,31,8.50
2022,05,19,11,32,9.70
2022,05,19,11,33,10.10
2022,05,19,11,34,7.40
2022,05,19,11,35,9.30
2022,05,19,11,36,8.60
2022,05,19,11,37,5.00
2022,05,19,11,38,6.70
2022,05,19,11,39,5.60
2022,05,19,11,40,6.10
2022,05,19,11,41,7.50
2022,05,19,11,42,4.10
2022,05,19,11,43,4.60
2022,05,19,11,44,10.50
2022,05,19,11,45,7.00
2022,05,19,11,46,12.10
2022,05,19,11,47,11.60
2022,05,19,11,48,9.90
2022,05,19,11,49,11.60
2022,05,19,11,50,11.80
2022,05,19,11,51,11.50
2022,05,19,11,52,14.60
2022,05,19,11,53,12.10
2022,05,19,11,54,15.70
2022,05,19,11,55,15.10
2022,05,19,11,56,15.90
2022,05,19,11,57,8.70
2022,05,19,11,58,13.00
2022,05,19,11,59,12.00
2022,05,19,12,00,13.70
2022,05,19,12,01,15.40
2022,05,19,12,02,11.10
2022,05,19,12,03,10.70
2022,05,19,12,04,12.60
2022,05,19,12,05,12.70
2022,05,19,12,06,7.20
2022,05,19,12,07,5.30
2022,05,19,12,08,12.20
2022,05,19,12,09,8.70
2022,05,19,12,10,12.90
2022,05,19,12,11,13.20
2022,05,19,12,12,13.10
2022,05,19,12,13,15.20
2022,05,19,12,14,16.20
2022,05,19,12,15,12.10
2022,05,19,12,16,11.70
2022,05,19,12,17,8.30
2022,05,19,12,18,11.60
2022,05,19,12,19,9.10
2022,05,19,12,20,13.20
2022,05,19,12,21,17.00
2022,05,19,12,22,9.00
2022,05,19,12,23,13.20
2022,05,19,12,24,11.50
2022,05,19,12,25,10.30
2022,05,19,12,26,13.10
2022,05,19,12,27,9.70
2022,05,19,12,28,11.80
2022,05,19,12,29,8.50
2022,05,19,12,30,13.10
2022,05,19,12,31,10.80
2022,05,19,12,32,9.50
2022,05,19,12,33,6.20
2022,05,19,12,34,11.50
2022,05,19,12,35,14.80
2022,05,19,12,36,10.90
2022,05,19,12,37,9.80
2022,05,19,12,38,11.20
2022,05,19,12,39,8.70
2022,05,19,12,40,6.90
2022,05,19,12,41,10.60
2022,05,19,12,42,9.00
2022,05,19,12,43,14.30
2022,05,19,12,44,14.20
2022,05,19,12,45,14.10
2022,05,19,12,46,12.70
2022,05,19,12,47,8.60
2022,05,19,12,48,15.40
2022,05,19,12,49,14.80
2022,05,19,12,50,12.40
2022,05,19,12,51,16.20
2022,05,19,12,52,13.20
2022,05,19,12,53,15.80
2022,05,19,12,54,8.30
2022,05,19,12,55,9.40
2022,05,19,12,56,13.50
2022,05,19,12,57,15.40
2022,05,19,12,58,11.30
2022,05,19,12,59,12.60
2022,05,19,13,00,16.20
2022,05,19,13,01,13.90
2022,05,19,13,02,11.60
2022,05,19,13,03,16.50
2022,05,19,13,04,14.70
2022,05,19,13,05,11.70
2022,05,19,13,06,6.40
2022,05,19,13,07,13.90
2022,05,19,13,08,11.60
2022,05,19,13,09,8.30
2022,05,19,13,10,12.10
2022,05,19,13,11,9.20
2022,05,19,13,12,9.80
2022,05,19,13,13,10.80
2022,05,19,13,14,12.00
2022,05,19,13,15,10.70
2022,05,19,13,16,11.60
2022,05,19,13,17,9.30
2022,05,19,13,18,13.10
2022,05,19,13,19,16.90
2022,05,19,13,20,15.50
2022,05,19,13,21,18.80
2022,05,19,13,22,11.00
2022,05,19,13,23,12.40
2022,05,19,13,24,17.60
2022,05,19,13,25,8.30
2022,05,19,13,26,5.90
2022,05,19,13,27,8.20
2022,05,19,13,28,15.10
2022,05,19,13,29,14.00
2022,05,19,13,30,9.60
2022,05,19,13,31,9.90
2022,05,19,13,32,4.20
2022,05,19,13,33,8.00
2022,05,19,13,34,7.30
2022,05,19,13,35,11.80
2022,05,19,13,36,12.00
2022,05,19,13,37,13.30
2022,05,19,13,38,10.20
2022,05,19,13,39,8.50
2022,05,19,13,40,9.10
2022,05,19,13,41,7.70
2022,05,19,13,42,4.40
2022,05,19,13,43,6.40
2022,05,19,13,44,8.30
2022,05,19,13,45,6.80
2022,05,19,13,46,10.60
2022,05,19,13,47,11.00
2022,05,19,13,48,10.60
2022,05,19,13,49,11.70
2022,05,19,13,50,14.90
2022,05,19,13,51,10.00
2022,05,19,13,52,11.40
2022,05,19,13,53,9.40
2022,05,19,13,54,13.80
2022,05,19,13,55,13.90
2022,05,19,13,56,15.10
2022,05,19,13,57,16.10
2022,05,19,13,58,17.60
2022,05,19,13,59,14.00
2022,05,19,14,00,16.90
2022,05,19,14,01,15.80
2022,05,19,14,02,14.50
2022,05,19,14,03,13.80
2022,05,19,14,04,13.50
2022,05,19,14,05,12.00
2022,05,19,14,06,19.10
2022,05,19,14,07,14.80
2022,05,19,14,08,14.20
2022,05,19,14,09,13.40
2022,05,19,14,10,12.60
2022,05,19,14,11,11.00
2022,05,19,14,12,19.70
2022,05,19,14,13,14.10
2022,05,19,14,14,11.40
2022,05,19,14,15,13.80
2022,05,19,14,16,9.90
2022,05,19,14,17,9.70
2022,05,19,14,18,6.40
2022,05,19,14,19,12.60
2022,05,19,14,20,12.10
2022,05,19,14,21,7.40
2022,05,19,14,22,6.80
2022,05,19,14,23,7.50
2022,05,19,14,24,10.00
2022,05,19,14,25,11.70
2022,05,19,14,26,8.70
2022,05,19,14,27,15.70
2022,05,19,14,28,9.90
2022,05,19,14,29,9.60
2022,05,19,14,30,13.50
2022,05,19,14,31,11.60
2022,05,19,14,32,5.50
2022,05,19,14,33,11.10
2022,05,19,14,34,12.90
2022,05,19,14,35,3.60
2022,05,19,14,36,6.50
2022,05,19,14,37,8.20
2022,05,19,14,38,12.40
2022,05,19,14,39,15.80
2022,05,19,14,40,8.80
2022,05,19,14,41,11.50
2022,05,19,14,42,6.90
2022,05,19,14,43,8.10
2022,05,19,14,44,5.90
2022,05,19,14,45,10.30
2022,05,19,14,46,6.80
2022,05,19,14,47,13.10
2022,05,19,14,48,11.90
2022,05,19,14,49,11.40
2022,05,19,14,50,10.90
2022,05,19,14,51,11.20
2022,05,19,14,52,9.60
2022,05,19,14,53,13.70
2022,05,19,14,54,10.30
2022,05,19,14,55,10.20
2022,05,19,14,56,12.00
2022,05,19,14,57,14.10
2022,05,19,14,58,14.20
2022,05,19,14,59,16.80
2022,05,19,15,00,12.90
2022,05,19,15,01,7.20
2022,05,19,15,02,8.90
2022,05,19,15,03,15.80
2022,05,19,15,04,10.60
2022,05,19,15,05,11.10
2022,05,19,15,06,16.30
2022,05,19,15,07,13.40
2022,05,19,15,08,13.40
2022,05,19,15,09,9.00
2022,05,19,15,10,10.10
2022,05,19,15,11,15.40
2022,05,19,15,12,13.80
2022,05,19,15,13,11.60
2022,05,19,15,14,11.10
2022,05,19,15,15,13.60
2022,05,19,15,16,14.80
2022,05,19,15,17,12.80
2022,05,19,15,18,9.70
2022,05,19,15,19,10.20
2022,05,19,15,20,10.80
2022,05,19,15,21,9.60
2022,05,19,15,22,8.80
2022,05,19,15,23,12.50
2022,05,19,15,24,16.20
2022,05,19,15,25,12.40
2022,05,19,15,26,10.90
2022,05,19,15,27,9.70
2022,05,19,15,28,11.20
2022,05,19,15,29,7.80
2022,05,19,15,30,6.60
2022,05,19,15,31,17.40
2022,05,19,15,32,15.20
2022,05,19,15,33,10.60
2022,05,19,15,34,12.30
2022,05,19,15,35,11.10
2022,05,19,15,36,12.80
2022,05,19,15,37,7.00
2022,05,19,15,38,15.40
2022,05,19,15,39,12.90
2022,05,19,15,40,9.10
2022,05,19,15,41,7.00
2022,05,19,15,42,8.50
2022,05,19,15,43,17.30
2022,05,19,15,44,11.50
2022,05,19,15,45,10.60
2022,05,19,15,46,16.20
2022,05,19,15,47,14.90
2022,05,19,15,48,11.10
2022,05,19,15,49,15.20
2022,05,19,15,50,13.50
2022,05,19,15,51,11.30
2022,05,19,15,52,11.10
2022,05,19,15,53,7.90
2022,05,19,15,54,8.50
2022,05,19,15,55,9.90
2022,05,19,15,56,10.50
2022,05,19,15,57,11.80
2022,05,19,15,58,11.50
2022,05,19,15,59,7.00
2022,05,19,16,00,11.60
2022,05,19,16,01,7.20
2022,05,19,16,02,9.00
2022,05,19,16,03,5.20
2022,05,19,16,04,7.40
2022,05,19,16,05,10.70
2022,05,19,16,06,7.40
2022,05,19,16,07,10.80
2022,05,19,16,08,9.30
2022,05,19,16,09,12.10
2022,05,19,16,10,9.40
2022,05,19,16,11,9.60
2022,05,19,16,12,11.40
2022,05,19,16,13,9.30
2022,05,19,16,14,4.80
2022,05,19,16,15,6.60
2022,05,19,16,16,6.60
2022,05,19,16,17,5.50
2022,05,19,16,18,6.70
2022,05,19,16,19,5.00
2022,05,19,16,20,6.70
2022,05,19,16,21,5.20
2022,05,19,16,22,2.20
2022,05,19,16,23,6.80
2022,05,19,16,24,8.90
2022,05,19,16,25,7.50
2022,05,19,16,26,3.20
2022,05,19,16,27,6.70
2022,05,19,16,28,11.10
2022,05,19,16,29,10.80
2022,05,19,16,30,9.20
2022,05,19,16,31,3.70
2022,05,19,16,32,4.00
2022,05,19,16,33,6.40
2022,05,19,16,34,14.30
2022,05,19,16,35,8.30
2022,05,19,16,36,5.10
2022,05,19,16,37,7.10
2022,05,19,16,38,3.90
2022,05,19,16,39,3.60
2022,05,19,16,40,8.50
2022,05,19,16,41,5.50
2022,05,19,16,42,4.80
2022,05,19,16,43,4.00
2022,05,19,16,44,4.40
2022,05,19,16,45,8.50
2022,05,19,16,46,5.60
2022,05,19,16,47,10.10
2022,05,19,16,48,13.90
2022,05,19,16,49,11.60
2022,05,19,16,50,9.90
2022,05,19,16,51,12.60
2022,05,19,16,52,8.90
2022,05,19,16,53,10.20
2022,05,19,16,54,7.80
2022,05,19,16,55,7.80
2022,05,19,16,56,5.90
2022,05,19,16,57,7.40
2022,05,19,16,58,9.00
2022,05,19,16,59,8.70
2022,05,19,17,00,7.50
2022,05,19,17,01,11.10
2022,05,19,17,02,9.70
2022,05,19,17,03,11.10
2022,05,19,17,04,8.50
2022,05,19,17,05,8.50
2022,05,19,17,06,11.10
2022,05,19,17,07,12.60
2022,05,19,17,08,13.70
2022,05,19,17,09,10.00
2022,05,19,17,10,9.10
2022,05,19,17,11,9.70
2022,05,19,17,12,9.30
2022,05,19,17,13,8.00
2022,05,19,17,14,12.50
2022,05,19,17,15,9.60
2022,05,19,17,16,11.50
2022,05,19,17,17,9.40
2022,05,19,17,18,11.40
2022,05,19,17,19,10.50
2022,05,19,17,20,7.80
2022,05,19,17,21,8.70
2022,05,19,17,22,11.80
2022,05,19,17,23,9.40
2022,05,19,17,24,9.00
2022,05,19,17,25,6.50
2022,05,19,17,26,6.40
2022,05,19,17,27,5.10
2022,05,19,17,28,6.40
2022,05,19,17,29,6.00
2022,05,19,17,30,7.20
2022,05,19,17,31,6.80
2022,05,19,17,32,7.60
2022,05,19,17,33,7.80
2022,05,19,17,34,5.60
2022,05,19,17,35,5.20
2022,05,19,17,36,5.40
2022,05,19,17,37,6.70
2022,05,19,17,38,9.10
2022,05,19,17,39,11.00
2022,05,19,17,40,6.00
2022,05,19,17,41,7.20
2022,05,19,17,42,7.10
2022,05,19,17,43,8.20
2022,05,19,17,44,9.80
2022,05,19,17,45,9.10
2022,05,19,17,46,8.20